CW9181 Weather Reports


time (UTC)temp
C
wind
direction
speed
KPH
gust
KPH
rain 1hr
cm
rain 24hr
cm
rain mn
cm
humidity
%
barometer
mb
20260902234026 25 270 4.8 19.3 0.00 0.00 0.00 50 1015.5
20260902233010 25 188 9.7 20.9 0.00 0.00 0.00 50 1015.5
20260902232025 25 295 8.0 16.1 0.00 0.00 0.00 50 1015.7
20260902231028 25 185 4.8 24.1 0.00 0.00 0.00 50 1015.6
20260902230027 25 289 9.7 19.3 0.00 0.00 0.00 48 1015.6
20260902225009 26 188 6.4 14.5 0.00 0.00 0.00 48 1015.7
20260902224026 26 249 11.3 20.9 0.00 0.00 0.00 49 1016.0
20260902223028 26 196 9.7 19.3 0.00 0.00 0.00 48 1016.0
20260902222010 26 213 8.0 16.1 0.00 0.00 0.00 47 1016.0
20260902221045 25 193 11.3 19.3 0.00 0.00 0.00 49 1016.0
20260902220026 25 265 8.0 17.7 0.00 0.00 0.00 50 1016.1
20260902215027 25 270 9.7 17.7 0.00 0.00 0.00 50 1016.2
20260902214023 24 311 6.4 16.1 0.00 0.00 0.00 50 1016.5
20260902213027 25 260 6.4 16.1 0.00 0.00 0.00 49 1016.5
20260902212012 25 255 3.2 16.1 0.00 0.00 0.00 49 1016.6
20260902211038 25 175 4.8 17.7 0.00 0.00 0.00 52 1016.6
20260902210019 23 270 6.4 17.7 0.00 0.00 0.00 52 1016.6
20260902205022 24 295 6.4 16.1 0.00 0.00 0.00 53 1016.7
20260902204018 25 251 6.4 16.1 0.00 0.00 0.00 52 1016.8
20260902203105 23 274 8.0 17.7 0.00 0.00 0.00 53 1016.9
20260902202014 25 184 6.4 17.7 0.00 0.00 0.00 53 1017.1
20260902201031 24 254 6.4 12.9 0.00 0.00 0.00 53 1017.2
20260902200009 23 249 6.4 12.9 0.00 0.00 0.00 56 1017.3
20260902195048 23 238 4.8 14.5 0.00 0.00 0.00 56 1017.3
20260902194031 23 245 8.0 17.7 0.00 0.00 0.00 55 1017.4
20260902193034 23 227 4.8 16.1 0.00 0.00 0.00 55 1017.6
20260902192009 23 253 8.0 16.1 0.00 0.00 0.00 56 1017.6
20260902191016 23 230 4.8 8.0 0.00 0.00 0.00 55 1017.8
20260902190036 23 196 8.0 11.3 0.00 0.00 0.00 56 1017.9
20260902185011 23 103 3.2 6.4 0.00 0.00 0.00 56 1017.8
20260902184016 22 306 1.6 9.7 0.00 0.00 0.00 59 1017.8
20260902183020 22 284 4.8 8.0 0.00 0.00 0.00 58 1017.9
20260902182038 23 164 4.8 12.9 0.00 0.00 0.00 57 1018.0
20260902181016 23 124 4.8 11.3 0.00 0.00 0.00 58 1017.9
20260902180016 23 247 6.4 14.5 0.00 0.00 0.00 58 1017.9
20260902175009 23 282 6.4 12.9 0.00 0.00 0.00 59 1018.0
20260902174035 22 107 6.4 9.7 0.00 0.00 0.00 60 1018.0
20260902173018 22 149 4.8 9.7 0.00 0.00 0.00 62 1017.9
20260902172020 21 223 4.8 8.0 0.00 0.00 0.00 64 1017.8
20260902171023 22 140 3.2 11.3 0.00 0.00 0.00 62 1017.8
20260902170022 21 64 1.6 11.3 0.00 0.00 0.00 64 1017.7
20260902165024 21 104 6.4 14.5 0.00 0.00 0.00 66 1017.7
20260902164041 20 95 3.2 8.0 0.00 0.00 0.00 66 1017.6
20260902163019 20 156 3.2 11.3 0.00 0.00 0.00 67 1017.5
20260902162019 20 162 6.4 11.3 0.00 0.00 0.00 68 1017.5
20260902161021 20 168 4.8 8.0 0.00 0.00 0.00 69 1017.6
20260902160043 19 118 3.2 8.0 0.00 0.00 0.00 70 1017.8
20260902155010 18 178 4.8 11.3 0.00 0.00 0.00 72 1017.6
20260902154013 18 153 4.8 8.0 0.00 0.00 0.00 73 1017.7
20260902153050 17 122 6.4 8.0 0.00 0.00 0.00 74 1017.7
20260902153014 17 122 6.4 8.0 0.00 0.00 0.00 74 1017.7
20260902152028 17 172 3.2 9.7 0.00 0.00 0.00 77 1017.6
20260902151028 16 101 3.2 8.0 0.00 0.00 0.00 78 1017.6
20260902150008 16 107 3.2 6.4 0.00 0.00 0.00 79 1017.5
20260902145026 16 85 4.8 8.0 0.00 0.00 0.00 79 1017.5
20260902144009 16 101 4.8 6.4 0.00 0.00 0.00 79 1017.3
20260902143010 16 130 6.4 11.3 0.00 0.00 0.00 80 1017.2
20260902142014 15 89 8.0 9.7 0.00 0.00 0.00 80 1017.1
20260902141010 15 108 3.2 6.4 0.00 0.00 0.00 81 1017.2
20260902140031 15 122 0.0 6.4 0.00 0.00 0.00 81 1017.2
20260902135049 15 131 1.6 6.4 0.00 0.00 0.00 81 1017.1
20260902134026 15 128 1.6 4.8 0.00 0.00 0.00 81 1016.9
20260902133009 15 106 3.2 4.8 0.00 0.00 0.00 81 1016.9
20260902132033 15 143 1.6 4.8 0.00 0.00 0.00 81 1016.9
20260902131015 15 126 3.2 8.0 0.00 0.00 0.00 81 1016.7
20260902130016 15 139 4.8 8.0 0.00 0.00 0.00 80 1016.8
20260902125037 15 141 1.6 8.0 0.00 0.00 0.00 80 1016.7
20260902124022 15 145 3.2 6.4 0.00 0.00 0.00 80 1016.6
20260902123048 15 126 1.6 8.0 0.00 0.00 0.00 80 1016.5
20260902122014 15 137 4.8 9.7 0.00 0.00 0.00 80 1016.6
20260902121012 15 102 4.8 8.0 0.00 0.00 0.00 80 1016.6
20260902120016 15 102 4.8 8.0 0.00 0.00 0.00 80 1016.6
20260902115020 15 128 4.8 11.3 0.00 0.00 0.00 80 1016.6
20260902114020 15 135 4.8 11.3 0.00 0.00 0.00 80 1016.7
20260902113025 15 114 4.8 9.7 0.00 0.00 0.00 80 1016.5
20260902112027 15 83 3.2 8.0 0.00 0.00 0.00 80 1016.3
20260902111025 15 141 4.8 8.0 0.00 0.00 0.00 80 1016.4
20260902110008 15 110 4.8 8.0 0.00 0.00 0.00 80 1016.5
20260902105014 15 150 4.8 8.0 0.00 0.00 0.00 80 1016.7
20260902104019 15 120 4.8 8.0 0.00 0.00 0.00 80 1016.7
20260902103019 15 172 4.8 8.0 0.00 0.00 0.00 80 1016.7
20260902102042 15 132 3.2 6.4 0.00 0.00 0.00 79 1016.7
20260902101021 15 132 4.8 8.0 0.00 0.00 0.00 79 1016.8
20260902100026 15 122 3.2 8.0 0.00 0.00 0.00 79 1016.9
20260902095012 15 121 3.2 6.4 0.00 0.00 0.00 79 1016.9
20260902094012 15 128 3.2 6.4 0.00 0.00 0.00 79 1016.8
20260902093013 15 120 3.2 6.4 0.00 0.00 0.00 79 1016.8
20260902092038 15 130 3.2 9.7 0.00 0.00 0.00 79 1016.9
20260902091042 15 143 3.2 8.0 0.00 0.00 0.00 78 1016.8
20260902090021 15 149 3.2 9.7 0.00 0.00 0.00 78 1016.8
20260902085023 15 121 3.2 6.4 0.00 0.00 0.00 78 1016.8
20260902084026 15 105 4.8 8.0 0.00 0.00 0.00 78 1016.8
20260902083025 15 88 4.8 8.0 0.00 0.00 0.00 77 1016.9
20260902082011 15 119 4.8 11.3 0.00 0.00 0.00 77 1016.8
20260902081014 16 116 4.8 9.7 0.00 0.00 0.00 77 1016.7
20260902080013 16 137 4.8 11.3 0.00 0.00 0.00 77 1016.6
20260902075038 16 176 4.8 12.9 0.00 0.00 0.00 77 1016.3
20260902074021 16 138 4.8 11.3 0.00 0.00 0.00 76 1016.4
20260902073043 16 120 8.0 14.5 0.00 0.00 0.00 76 1016.4
20260902072025 16 132 8.0 12.9 0.00 0.00 0.00 76 1016.4
20260902071048 16 152 4.8 9.7 0.00 0.00 0.00 75 1016.5
20260902070022 16 143 6.4 12.9 0.00 0.00 0.00 75 1016.4
20260902065045 16 137 6.4 14.5 0.00 0.00 0.00 74 1016.5
20260902064024 16 119 8.0 12.9 0.00 0.00 0.00 74 1016.3
20260902063027 16 99 4.8 11.3 0.00 0.00 0.00 74 1016.5
20260902062023 16 135 6.4 9.7 0.00 0.00 0.00 73 1016.5
20260902061043 16 185 4.8 8.0 0.00 0.00 0.00 73 1016.6
20260902060017 17 121 4.8 16.1 0.00 0.00 0.00 72 1016.7
20260902055018 17 137 6.4 11.3 0.00 0.00 0.00 72 1016.6
20260902054038 17 184 3.2 8.0 0.00 0.00 0.00 70 1016.7
20260902053017 17 195 6.4 12.9 0.00 0.00 0.00 70 1016.6
20260902052020 17 186 6.4 11.3 0.00 0.00 0.00 69 1016.5
20260902051044 17 174 3.2 8.0 0.00 0.00 0.00 67 1016.5
20260902050020 17 150 6.4 12.9 0.00 0.00 0.00 67 1016.5
20260902045021 18 223 1.6 12.9 0.00 0.00 0.00 66 1016.4
20260902044020 18 150 4.8 14.5 0.00 0.00 0.00 66 1016.3
20260902043020 18 216 6.4 16.1 0.00 0.00 0.00 65 1016.1
20260902042018 18 196 6.4 19.3 0.00 0.00 0.00 64 1016.0
20260902041013 18 219 3.2 17.7 0.00 0.00 0.00 63 1015.9
20260902040013 18 214 4.8 17.7 0.00 0.00 0.00 62 1015.8
20260902035025 19 230 6.4 16.1 0.00 0.00 0.00 61 1015.5
20260902034047 19 234 6.4 16.1 0.00 0.00 0.00 61 1015.3
20260902033019 19 265 4.8 17.7 0.00 0.00 0.00 60 1015.1
20260902032021 20 245 4.8 19.3 0.00 0.00 0.00 58 1015.0
20260902031022 20 232 4.8 9.7 0.00 0.00 0.00 57 1014.7
20260902030035 20 310 6.4 14.5 0.00 0.00 0.00 55 1014.8
20260902025013 20 220 3.2 14.5 0.00 0.00 0.00 54 1014.5
20260902024016 21 255 4.8 14.5 0.00 0.00 0.00 53 1014.3
20260902023017 21 242 4.8 17.7 0.00 0.00 0.00 52 1014.3
20260902022012 21 234 6.4 19.3 0.00 0.00 0.00 51 1014.1
20260902021033 21 254 6.4 16.1 0.00 0.00 0.00 49 1014.1
20260902020011 22 211 8.0 19.3 0.00 0.00 0.00 49 1014.1
20260902015028 22 214 6.4 17.7 0.00 0.00 0.00 48 1014.1
20260902014028 22 205 6.4 17.7 0.00 0.00 0.00 47 1013.9
20260902013022 23 255 8.0 25.7 0.00 0.00 0.00 46 1013.9
20260902012025 23 238 6.4 17.7 0.00 0.00 0.00 43 1013.8
20260902011025 24 214 4.8 14.5 0.00 0.00 0.00 43 1013.8
20260902010020 24 256 6.4 16.1 0.00 0.00 0.00 43 1013.8
20260902005018 24 200 9.7 17.7 0.00 0.00 0.00 42 1013.8
20260902004019 25 207 8.0 14.5 0.00 0.00 0.00 41 1013.8
20260902003021 25 208 6.4 20.9 0.00 0.00 0.00 40 1013.9
20260902002016 25 270 9.7 20.9 0.00 0.00 0.00 41 1013.8
20260902001031 25 180 4.8 16.1 0.00 0.00 0.00 41 1013.9
20260902000013 25 166 6.4 17.7 0.00 0.00 0.00 39 1014.1
20260901235028 25 247 8.0 14.5 0.00 0.00 0.00 39 1014.0